Welcome to the New NWS' Forecast!
Most changes are behind the scenes, but click here for differences you might notice.

Regional Weather Roundup (RWR)

Issued by National Weather Service (NWS)

                            
000
ASUS45 KREV 200010
RWRNV 
NEVADA REGIONAL WEATHER ROUNDUP
NATIONAL WEATHER SERVICE RENO NV
400 PM PST MON NOV 19 2018

NOTE: "FAIR" INDICATES FEW OR NO CLOUDS BELOW 12,000 FEET WITH NO
SIGNIFICANT WEATHER AND/OR OBSTRUCTIONS TO VISIBILITY.

NVZ001-003-004-200100-
WESTERN NEVADA
  
CITY           SKY/WX    TMP DP  RH WIND       PRES   REMARKS
RENO           MOCLDY    53  20  27 CALM      30.15S                  
6HR MIN TEMP:  37; 6HR MAX TEMP:  55;                                

CARSON CITY    FAIR      48  16  27 E10       30.15S                  
MINDEN         FAIR      48  16  27 W3        30.14S                  
SLIDE MTN        N/A     39  -6  14 E3          N/A                   
FALLON         MOCLDY    49  22  34 N7        30.15F                  
6HR MIN TEMP:  38; 6HR MAX TEMP:  51;                                

LOVELOCK       PTCLDY    48  20  32 SW3       30.16F                  
6HR MIN TEMP:  37; 6HR MAX TEMP:  52;                                

HAWTHORNE      CLEAR     48  21  34 NW6       30.14S                  
$$

NVZ002-CAZ072-073-200100-
NORTHERN AND CENTRAL SIERRA
  
CITY           SKY/WX    TMP DP  RH WIND       PRES   REMARKS
S. LAKE TAHOE  CLEAR     43  21  41 CALM      30.14F                  
6HR MIN TEMP:  35; 6HR MAX TEMP:  52;                                

SQUAW VLY 8000 NOT AVBL                                               
BLUE CANYON    CLEAR     54  15  21 SW5       30.14S                  
MAMMOTH LAKES  FAIR      44   4  18 E6        30.18S                  
6HR MIN TEMP:  36; 6HR MAX TEMP:  52;                                

$$

NVZ030-031-036-200100-
NORTHERN NEVADA
  
CITY           SKY/WX    TMP DP  RH WIND       PRES   REMARKS
ELKO           CLEAR     47  12  24 NE3       30.19F                  
6HR MIN TEMP:  25; 6HR MAX TEMP:  49;                                

WINNEMUCCA     CLEAR     47  16  29 NE8       30.17S                  
6HR MIN TEMP:  37; 6HR MAX TEMP:  52;                                

WENDOVER       CLEAR     35  16  45 CALM      30.28F                  
$$

NVZ035-037-200100-
CENTRAL NEVADA
  
CITY           SKY/WX    TMP DP  RH WIND       PRES   REMARKS
ELY            CLEAR     45  -3  13 NW3       30.19S                  
6HR MIN TEMP:  38; 6HR MAX TEMP:  52;                                

EUREKA           N/A     49  -1  12 N3        30.18S                  
6HR MIN TEMP:  35; 6HR MAX TEMP:  52;                                

$$

NVZ013-014-200100-
SOUTH CENTRAL NEVADA
  
CITY           SKY/WX    TMP DP  RH WIND       PRES   REMARKS
TONOPAH        PTCLDY    53  -4   9 S3        30.17S                  
6HR MIN TEMP:  38; 6HR MAX TEMP:  54;                                

$$

NVZ017-020-022-200100-
SOUTHERN NEVADA
  
CITY           SKY/WX    TMP DP  RH WIND       PRES   REMARKS
LAS VEGAS      MOCLDY    62  12  14 CALM      30.10F                  
6HR MIN TEMP:  56; 6HR MAX TEMP:  64;                                

N. LAS VEGAS   PTCLDY    62  10  13 SW3       30.11S                  
6HR MIN TEMP:  54; 6HR MAX TEMP:  63;                                

NELLIS AFB     PTCLDY    61  12  15 NE6       30.10                   
HENDERSON      PTCLDY    60  12  15 CALM      30.14F                  
6HR MIN TEMP:  55; 6HR MAX TEMP:  62;                                

MERCURY        PTCLDY    58   8  13 SE9       30.12R                  
6HR MIN TEMP:  55; 6HR MAX TEMP:  62;                                

$$